Time,TemperatureF,DewpointF,PressureIn,WindDirection,WindDirectionDegrees,WindSpeedMPH,WindSpeedGustMPH,Humidity,HourlyPrecipIn,Conditions,Clouds,dailyrainin,SoftwareType,DateUTC
2013-02-05 00:00:00,52.0,36.3,30.12,East,90,0.0,0.0,55,0.00,,---,0.00,VWS V14.01,2013-02-05 05:00:00,
2013-02-05 00:03:00,52.0,36.3,30.12,East,90,0.0,0.0,55,0.00,,---,0.00,VWS V14.01,2013-02-05 05:03:00,
2013-02-05 00:06:00,52.0,36.3,30.12,ESE,112,0.0,0.0,55,0.00,,---,0.00,VWS V14.01,2013-02-05 05:06:00,
2013-02-05 00:10:00,51.8,36.6,30.12,ESE,112,0.0,0.0,56,0.00,,---,0.00,VWS V14.01,2013-02-05 05:10:00,
2013-02-05 00:15:00,51.8,36.6,30.12,ESE,112,0.0,0.0,56,0.00,,---,0.00,VWS V14.01,2013-02-05 05:15:00,
2013-02-05 00:20:00,51.6,36.9,30.12,ESE,112,0.0,0.0,57,0.00,,---,0.00,VWS V14.01,2013-02-05 05:20:00,
2013-02-05 00:25:00,51.6,36.9,30.12,ESE,112,0.0,0.0,57,0.00,,---,0.00,VWS V14.01,2013-02-05 05:25:00,
2013-02-05 00:30:00,51.6,36.9,30.15,SE,135,0.0,0.0,57,0.00,,---,0.00,VWS V14.01,2013-02-05 05:30:00,
2013-02-05 00:35:00,51.6,36.9,30.15,North,0,0.9,1.3,57,0.00,,---,0.00,VWS V14.01,2013-02-05 05:35:00,
2013-02-05 00:38:00,51.6,36.9,30.15,North,0,0.0,0.0,57,0.00,,---,0.00,VWS V14.01,2013-02-05 05:38:00,
2013-02-05 00:43:00,51.4,36.7,30.12,East,90,0.0,0.0,57,0.00,,---,0.00,VWS V14.01,2013-02-05 05:43:00,
2013-02-05 00:48:00,51.4,37.2,30.12,SE,135,0.0,0.0,58,0.00,,---,0.00,VWS V14.01,2013-02-05 05:48:00,
2013-02-05 00:53:00,51.3,37.0,30.12,SE,135,0.0,0.0,58,0.00,,---,0.00,VWS V14.01,2013-02-05 05:53:00,
2013-02-05 00:58:00,51.1,37.3,30.12,SE,135,0.0,0.0,59,0.00,,---,0.00,VWS V14.01,2013-02-05 05:58:00,
2013-02-05 01:03:00,51.3,37.4,30.12,East,90,0.0,0.0,59,0.00,,---,0.00,VWS V14.01,2013-02-05 06:03:00,
2013-02-05 01:09:00,51.3,37.4,30.12,East,90,0.0,0.0,59,0.00,,---,0.00,VWS V14.01,2013-02-05 06:09:00,
2013-02-05 01:13:00,51.3,37.4,30.12,East,90,0.0,0.0,59,0.00,,---,0.00,VWS V14.01,2013-02-05 06:13:00,
2013-02-05 01:18:00,51.1,37.3,30.12,NE,45,0.0,0.0,59,0.00,,---,0.00,VWS V14.01,2013-02-05 06:18:00,
2013-02-05 01:23:00,51.1,37.3,30.12,ENE,68,0.0,0.0,59,0.00,,---,0.00,VWS V14.01,2013-02-05 06:23:00,
2013-02-05 01:29:00,51.1,37.3,30.12,NE,45,0.0,0.0,59,0.00,,---,0.00,VWS V14.01,2013-02-05 06:29:00,
2013-02-05 01:33:00,50.9,37.1,30.12,SE,135,0.0,0.0,59,0.00,,---,0.00,VWS V14.01,2013-02-05 06:33:00,
2013-02-05 01:39:00,50.7,37.4,30.12,SE,135,0.0,0.0,60,0.00,,---,0.00,VWS V14.01,2013-02-05 06:39:00,
2013-02-05 01:43:00,50.7,37.4,30.09,ESE,112,0.0,0.0,60,0.00,,---,0.00,VWS V14.01,2013-02-05 06:43:00,
2013-02-05 01:48:00,50.7,37.4,30.09,SE,135,0.0,0.0,60,0.00,,---,0.00,VWS V14.01,2013-02-05 06:48:00,
2013-02-05 01:53:00,50.7,37.4,30.09,SE,135,0.0,0.0,60,0.00,,---,0.00,VWS V14.01,2013-02-05 06:53:00,
2013-02-05 01:59:00,50.7,37.4,30.09,SE,135,0.0,0.0,60,0.00,,---,0.00,VWS V14.01,2013-02-05 06:59:00,
2013-02-05 02:04:00,50.5,37.6,30.09,SE,135,0.0,0.0,61,0.00,,---,0.00,VWS V14.01,2013-02-05 07:04:00,
2013-02-05 02:09:00,50.5,37.6,30.09,NE,45,0.0,0.0,61,0.00,,---,0.00,VWS V14.01,2013-02-05 07:09:00,
2013-02-05 02:15:00,50.5,37.6,30.09,NE,45,0.0,0.0,61,0.00,,---,0.00,VWS V14.01,2013-02-05 07:15:00,
2013-02-05 02:20:00,50.5,37.6,30.09,NNE,22,0.0,0.0,61,0.00,,---,0.00,VWS V14.01,2013-02-05 07:20:00,
2013-02-05 02:26:00,50.4,37.4,30.09,SSE,158,0.0,0.0,61,0.00,,---,0.00,VWS V14.01,2013-02-05 07:26:00,
2013-02-05 02:31:00,50.4,37.4,30.09,SE,135,0.0,0.0,61,0.00,,---,0.00,VWS V14.01,2013-02-05 07:31:00,
2013-02-05 02:36:00,50.4,37.4,30.09,ENE,68,0.0,0.0,61,0.00,,---,0.00,VWS V14.01,2013-02-05 07:36:00,
2013-02-05 02:41:00,50.4,37.4,30.09,ESE,112,0.0,0.0,61,0.00,,---,0.00,VWS V14.01,2013-02-05 07:41:00,
2013-02-05 02:46:00,50.4,37.4,30.06,SSW,202,0.0,0.0,61,0.00,,---,0.00,VWS V14.01,2013-02-05 07:46:00,
2013-02-05 02:51:00,50.4,37.4,30.06,SSE,158,0.0,0.0,61,0.00,,---,0.00,VWS V14.01,2013-02-05 07:51:00,
2013-02-05 02:56:00,50.2,37.3,30.06,NNE,22,1.1,1.1,61,0.00,,---,0.00,VWS V14.01,2013-02-05 07:56:00,
2013-02-05 03:01:00,50.2,36.8,30.06,SSE,158,0.0,0.0,60,0.00,,---,0.00,VWS V14.01,2013-02-05 08:01:00,
2013-02-05 03:06:00,50.2,36.8,30.06,North,0,0.0,0.0,60,0.00,,---,0.00,VWS V14.01,2013-02-05 08:06:00,
2013-02-05 03:12:00,50.2,36.8,30.06,ENE,68,0.0,0.0,60,0.00,,---,0.00,VWS V14.01,2013-02-05 08:12:00,
2013-02-05 03:17:00,50.2,36.8,30.06,NW,315,0.0,0.0,60,0.00,,---,0.00,VWS V14.01,2013-02-05 08:17:00,
2013-02-05 03:22:00,50.2,36.8,30.06,SE,135,0.0,0.0,60,0.00,,---,0.00,VWS V14.01,2013-02-05 08:22:00,
2013-02-05 03:27:00,50.2,36.8,30.06,SE,135,0.0,0.0,60,0.00,,---,0.00,VWS V14.01,2013-02-05 08:27:00,
2013-02-05 03:32:00,50.0,36.2,30.06,SE,135,0.0,0.0,59,0.00,,---,0.00,VWS V14.01,2013-02-05 08:32:00,
2013-02-05 03:37:00,50.0,36.2,30.06,SSE,158,0.0,0.0,59,0.00,,---,0.00,VWS V14.01,2013-02-05 08:37:00,
2013-02-05 03:42:00,50.0,36.2,30.06,ESE,112,0.0,0.0,59,0.00,,---,0.00,VWS V14.01,2013-02-05 08:42:00,
2013-02-05 03:47:00,50.0,36.2,30.06,SE,135,0.0,0.0,59,0.00,,---,0.00,VWS V14.01,2013-02-05 08:47:00,
2013-02-05 03:52:00,50.0,35.8,30.06,NNE,22,0.0,0.0,58,0.00,,---,0.00,VWS V14.01,2013-02-05 08:52:00,
2013-02-05 03:57:00,50.0,35.8,30.06,NE,45,0.0,0.0,58,0.00,,---,0.00,VWS V14.01,2013-02-05 08:57:00,
2013-02-05 04:03:00,49.8,35.7,30.06,SE,135,0.0,0.0,58,0.00,,---,0.00,VWS V14.01,2013-02-05 09:03:00,
2013-02-05 04:08:00,50.0,35.4,30.06,ESE,112,0.0,0.0,57,0.00,,---,0.00,VWS V14.01,2013-02-05 09:08:00,
2013-02-05 04:13:00,49.8,35.2,30.06,NNE,22,0.0,0.0,57,0.00,,---,0.00,VWS V14.01,2013-02-05 09:13:00,
2013-02-05 04:18:00,49.8,35.2,30.06,SE,135,0.0,0.0,57,0.00,,---,0.00,VWS V14.01,2013-02-05 09:18:00,
2013-02-05 04:23:00,49.8,35.2,30.06,SE,135,0.0,0.0,57,0.00,,---,0.00,VWS V14.01,2013-02-05 09:23:00,
2013-02-05 04:28:00,49.8,35.2,30.06,SE,135,0.0,0.0,57,0.00,,---,0.00,VWS V14.01,2013-02-05 09:28:00,
2013-02-05 04:33:00,49.8,35.2,30.03,ENE,68,0.0,0.0,57,0.00,,---,0.00,VWS V14.01,2013-02-05 09:33:00,
2013-02-05 04:38:00,49.6,35.0,30.03,ENE,68,0.0,0.0,57,0.00,,---,0.00,VWS V14.01,2013-02-05 09:38:00,
2013-02-05 04:43:00,49.6,34.6,30.03,East,90,0.0,0.0,56,0.00,,---,0.00,VWS V14.01,2013-02-05 09:43:00,
2013-02-05 04:49:00,49.6,34.6,30.06,NE,45,0.0,0.0,56,0.00,,---,0.00,VWS V14.01,2013-02-05 09:49:00,
2013-02-05 04:54:00,49.6,34.6,30.06,NE,45,0.0,0.0,56,0.00,,---,0.00,VWS V14.01,2013-02-05 09:54:00,
2013-02-05 04:59:00,49.5,34.4,30.06,ENE,68,0.0,0.0,56,0.00,,---,0.00,VWS V14.01,2013-02-05 09:59:00,
2013-02-05 05:04:00,49.5,34.4,30.06,ESE,112,0.0,0.0,56,0.00,,---,0.00,VWS V14.01,2013-02-05 10:04:00,
2013-02-05 05:09:00,49.5,34.4,30.06,SE,135,0.0,0.0,56,0.00,,---,0.00,VWS V14.01,2013-02-05 10:09:00,
2013-02-05 05:14:00,49.5,34.4,30.06,ENE,68,0.0,0.0,56,0.00,,---,0.00,VWS V14.01,2013-02-05 10:14:00,
2013-02-05 05:20:00,49.3,34.3,30.06,ENE,68,0.0,0.0,56,0.00,,---,0.00,VWS V14.01,2013-02-05 10:20:00,
2013-02-05 05:25:00,49.3,34.3,30.06,East,90,0.0,0.0,56,0.00,,---,0.00,VWS V14.01,2013-02-05 10:25:00,
2013-02-05 05:30:00,49.3,34.3,30.06,ENE,68,0.0,0.0,56,0.00,,---,0.00,VWS V14.01,2013-02-05 10:30:00,
2013-02-05 05:35:00,49.3,34.3,30.06,East,90,0.0,0.0,56,0.00,,---,0.00,VWS V14.01,2013-02-05 10:35:00,
2013-02-05 05:40:00,49.3,34.3,30.06,ESE,112,0.0,0.0,56,0.00,,---,0.00,VWS V14.01,2013-02-05 10:40:00,
2013-02-05 05:45:00,49.3,34.3,30.06,East,90,1.1,1.3,56,0.00,,---,0.00,VWS V14.01,2013-02-05 10:45:00,
2013-02-05 05:51:00,49.3,34.3,30.06,ENE,68,0.0,1.3,56,0.00,,---,0.00,VWS V14.01,2013-02-05 10:51:00,
2013-02-05 05:56:00,49.1,33.7,30.06,ESE,112,0.0,2.0,55,0.00,,---,0.00,VWS V14.01,2013-02-05 10:56:00,
2013-02-05 06:01:00,49.1,33.7,30.06,ESE,112,0.0,1.1,55,0.00,,---,0.00,VWS V14.01,2013-02-05 11:01:00,
2013-02-05 06:06:00,49.3,33.8,30.06,SE,135,1.1,1.6,55,0.00,,---,0.00,VWS V14.01,2013-02-05 11:06:00,
2013-02-05 06:11:00,49.3,33.8,30.06,ESE,112,0.0,0.0,55,0.00,,---,0.00,VWS V14.01,2013-02-05 11:11:00,
2013-02-05 06:17:00,49.5,34.0,30.06,ESE,112,0.0,1.3,55,0.00,,---,0.00,VWS V14.01,2013-02-05 11:17:00,
2013-02-05 06:22:00,49.5,34.0,30.06,SE,135,0.9,0.9,55,0.00,,---,0.00,VWS V14.01,2013-02-05 11:22:00,
2013-02-05 06:27:00,49.5,33.5,30.06,North,0,0.0,0.0,54,0.00,,---,0.00,VWS V14.01,2013-02-05 11:27:00,
2013-02-05 06:32:00,49.5,33.5,30.06,North,0,0.0,0.0,54,0.00,,---,0.00,VWS V14.01,2013-02-05 11:32:00,
2013-02-05 06:38:00,49.6,33.7,30.06,North,0,0.0,0.0,54,0.00,,---,0.00,VWS V14.01,2013-02-05 11:38:00,
2013-02-05 06:44:00,49.6,33.2,30.06,North,0,0.0,0.0,53,0.00,,---,0.00,VWS V14.01,2013-02-05 11:44:00,
2013-02-05 06:49:00,49.5,33.1,30.06,North,0,0.0,0.0,53,0.00,,---,0.00,VWS V14.01,2013-02-05 11:49:00,
2013-02-05 06:54:00,49.5,33.1,30.06,North,0,0.0,0.0,53,0.00,,---,0.00,VWS V14.01,2013-02-05 11:54:00,
2013-02-05 07:00:00,49.5,33.5,30.09,North,0,0.0,0.0,54,0.00,,---,0.00,VWS V14.01,2013-02-05 12:00:00,
2013-02-05 07:05:00,49.5,33.5,30.09,North,0,0.0,0.0,54,0.00,,---,0.00,VWS V14.01,2013-02-05 12:05:00,
2013-02-05 07:10:00,49.5,33.5,30.09,North,0,0.0,0.0,54,0.00,,---,0.00,VWS V14.01,2013-02-05 12:10:00,
2013-02-05 07:16:00,49.3,33.4,30.09,North,0,0.0,0.0,54,0.00,,---,0.00,VWS V14.01,2013-02-05 12:16:00,
2013-02-05 07:21:00,49.3,33.4,30.09,North,0,0.0,0.0,54,0.00,,---,0.00,VWS V14.01,2013-02-05 12:21:00,
2013-02-05 07:27:00,49.3,33.4,30.09,North,0,0.0,0.0,54,0.00,,---,0.00,VWS V14.01,2013-02-05 12:27:00,
2013-02-05 07:32:00,49.3,33.4,30.09,North,0,0.0,0.0,54,0.00,,---,0.00,VWS V14.01,2013-02-05 12:32:00,
2013-02-05 07:37:00,49.5,34.0,30.09,East,90,0.0,0.0,55,0.00,,---,0.00,VWS V14.01,2013-02-05 12:37:00,
2013-02-05 07:42:00,49.5,34.0,30.09,ESE,112,0.0,0.0,55,0.00,,---,0.00,VWS V14.01,2013-02-05 12:42:00,
2013-02-05 07:47:00,49.6,34.2,30.09,ESE,112,0.0,0.0,55,0.00,,---,0.00,VWS V14.01,2013-02-05 12:47:00,
2013-02-05 07:52:00,49.6,34.2,30.09,NNW,338,0.0,0.0,55,0.00,,---,0.00,VWS V14.01,2013-02-05 12:52:00,
2013-02-05 07:57:00,49.8,34.3,30.09,ENE,68,0.0,0.0,55,0.00,,---,0.00,VWS V14.01,2013-02-05 12:57:00,
2013-02-05 08:02:00,50.2,34.7,30.09,NNE,22,1.3,1.3,55,0.00,,---,0.00,VWS V14.01,2013-02-05 13:02:00,
2013-02-05 08:07:00,50.4,34.8,30.09,NNE,22,1.1,1.1,55,0.00,,---,0.00,VWS V14.01,2013-02-05 13:07:00,
2013-02-05 08:12:00,50.7,35.2,30.09,ENE,68,0.9,1.1,55,0.00,,---,0.00,VWS V14.01,2013-02-05 13:12:00,
2013-02-05 08:17:00,51.3,35.7,30.09,ENE,68,3.1,3.1,55,0.00,,---,0.00,VWS V14.01,2013-02-05 13:17:00,
2013-02-05 08:23:00,51.8,36.2,30.09,ENE,68,0.0,1.3,55,0.00,,---,0.00,VWS V14.01,2013-02-05 13:23:00,
2013-02-05 08:28:00,52.3,36.2,30.09,ESE,112,0.0,0.0,54,0.00,,---,0.00,VWS V14.01,2013-02-05 13:28:00,
2013-02-05 08:34:00,52.9,37.2,30.09,East,90,2.0,2.5,55,0.00,,---,0.00,VWS V14.01,2013-02-05 13:34:00,
2013-02-05 08:39:00,53.4,37.2,30.09,East,90,2.9,3.4,54,0.00,,---,0.00,VWS V14.01,2013-02-05 13:39:00,
2013-02-05 08:44:00,54.0,37.7,30.12,ENE,68,1.3,2.5,54,0.00,,---,0.00,VWS V14.01,2013-02-05 13:44:00,
2013-02-05 08:49:00,54.5,38.2,30.12,East,90,0.0,0.0,54,0.00,,---,0.00,VWS V14.01,2013-02-05 13:49:00,
2013-02-05 08:54:00,55.2,38.4,30.12,East,90,2.9,2.9,53,0.00,,---,0.00,VWS V14.01,2013-02-05 13:54:00,
2013-02-05 08:59:00,55.9,38.6,30.12,ESE,112,1.3,2.2,52,0.00,,---,0.00,VWS V14.01,2013-02-05 13:59:00,
2013-02-05 09:04:00,56.7,39.2,30.12,East,90,3.4,4.0,52,0.00,,---,0.00,VWS V14.01,2013-02-05 14:04:00,
2013-02-05 09:09:00,57.2,39.2,30.12,East,90,3.6,3.6,51,0.00,,---,0.00,VWS V14.01,2013-02-05 14:09:00,
2013-02-05 09:15:00,58.1,39.6,30.12,ESE,112,0.9,2.9,50,0.00,,---,0.00,VWS V14.01,2013-02-05 14:15:00,
2013-02-05 09:20:00,58.8,40.2,30.12,East,90,1.6,3.1,50,0.00,,---,0.00,VWS V14.01,2013-02-05 14:20:00,
2013-02-05 09:25:00,59.4,40.2,30.12,NNE,22,3.1,3.1,49,0.00,,---,0.00,VWS V14.01,2013-02-05 14:25:00,
2013-02-05 09:31:00,60.4,40.7,30.12,SSW,202,1.3,2.7,48,0.00,,---,0.00,VWS V14.01,2013-02-05 14:31:00,
2013-02-05 09:37:00,60.8,41.0,30.12,East,90,4.0,4.0,48,0.00,,---,0.00,VWS V14.01,2013-02-05 14:37:00,
2013-02-05 09:43:00,61.9,41.5,30.12,ENE,68,3.8,5.4,47,0.00,,---,0.00,VWS V14.01,2013-02-05 14:43:00,
2013-02-05 09:49:00,62.8,41.7,30.12,ENE,68,1.3,4.7,46,0.00,,---,0.00,VWS V14.01,2013-02-05 14:49:00,
2013-02-05 09:54:00,63.7,42.5,30.12,NE,45,2.9,3.4,46,0.00,,---,0.00,VWS V14.01,2013-02-05 14:54:00,
2013-02-05 09:59:00,64.6,42.8,30.12,SSE,158,3.6,3.6,45,0.00,,---,0.00,VWS V14.01,2013-02-05 14:59:00,
2013-02-05 10:04:00,65.5,43.6,30.12,South,180,0.9,3.1,45,0.00,,---,0.00,VWS V14.01,2013-02-05 15:04:00,
2013-02-05 10:09:00,66.2,43.7,30.12,ESE,112,0.9,3.4,44,0.00,,---,0.00,VWS V14.01,2013-02-05 15:09:00,
2013-02-05 10:15:00,67.1,43.9,30.15,SE,135,3.1,5.4,43,0.00,,---,0.00,VWS V14.01,2013-02-05 15:15:00,
2013-02-05 10:20:00,67.6,44.4,30.15,SSW,202,1.3,3.1,43,0.00,,---,0.00,VWS V14.01,2013-02-05 15:20:00,
2013-02-05 10:25:00,68.5,44.6,30.15,ESE,112,1.6,2.5,42,0.00,,---,0.00,VWS V14.01,2013-02-05 15:25:00,
2013-02-05 10:30:00,69.1,45.0,30.12,ESE,112,3.1,3.1,42,0.00,,---,0.00,VWS V14.01,2013-02-05 15:30:00,
2013-02-05 10:35:00,69.6,45.5,30.12,SW,225,3.4,3.8,42,0.00,,---,0.00,VWS V14.01,2013-02-05 15:35:00,
2013-02-05 10:40:00,70.5,45.7,30.12,SW,225,1.1,2.9,41,0.00,,---,0.00,VWS V14.01,2013-02-05 15:40:00,
2013-02-05 10:45:00,71.2,45.7,30.12,WNW,292,3.1,3.4,40,0.00,,---,0.00,VWS V14.01,2013-02-05 15:45:00,
2013-02-05 10:50:00,71.8,45.5,30.12,SE,135,4.9,7.6,39,0.00,,---,0.00,VWS V14.01,2013-02-05 15:50:00,
2013-02-05 10:55:00,72.5,45.5,30.12,SSE,158,2.5,4.9,38,0.00,,---,0.00,VWS V14.01,2013-02-05 15:55:00,
2013-02-05 11:00:00,72.7,44.9,30.15,SW,225,2.7,6.0,37,0.00,,---,0.00,VWS V14.01,2013-02-05 16:00:00,
2013-02-05 11:06:00,73.0,45.2,30.15,SE,135,2.2,2.2,37,0.00,,---,0.00,VWS V14.01,2013-02-05 16:06:00,
2013-02-05 11:11:00,73.4,44.8,30.15,SSW,202,3.4,3.6,36,0.00,,---,0.00,VWS V14.01,2013-02-05 16:11:00,
2013-02-05 11:17:00,73.9,45.3,30.12,South,180,2.7,2.7,36,0.00,,---,0.00,VWS V14.01,2013-02-05 16:17:00,
2013-02-05 11:22:00,74.1,44.8,30.12,SSW,202,4.0,4.0,35,0.00,,---,0.00,VWS V14.01,2013-02-05 16:22:00,
2013-02-05 11:27:00,74.5,45.1,30.12,WSW,248,2.9,4.0,35,0.00,,---,0.00,VWS V14.01,2013-02-05 16:27:00,
2013-02-05 11:32:00,74.8,44.6,30.12,SW,225,6.5,7.8,34,0.00,,---,0.00,VWS V14.01,2013-02-05 16:32:00,
2013-02-05 11:37:00,75.0,44.8,30.12,WSW,248,5.6,5.6,34,0.00,,---,0.00,VWS V14.01,2013-02-05 16:37:00,
2013-02-05 11:42:00,75.2,44.2,30.12,WSW,248,8.7,8.7,33,0.00,,---,0.00,VWS V14.01,2013-02-05 16:42:00,
2013-02-05 11:47:00,75.2,44.2,30.12,SW,225,3.4,5.6,33,0.00,,---,0.00,VWS V14.01,2013-02-05 16:47:00,
2013-02-05 11:52:00,75.4,43.5,30.12,SSW,202,6.0,7.4,32,0.00,,---,0.00,VWS V14.01,2013-02-05 16:52:00,
2013-02-05 11:57:00,75.6,43.7,30.12,SE,135,3.8,8.5,32,0.00,,---,0.00,VWS V14.01,2013-02-05 16:57:00,
2013-02-05 12:02:00,75.7,43.8,30.12,ESE,112,2.0,6.9,32,0.00,,---,0.00,VWS V14.01,2013-02-05 17:02:00,
2013-02-05 12:07:00,76.1,44.1,30.12,SSW,202,3.6,6.3,32,0.00,,---,0.00,VWS V14.01,2013-02-05 17:07:00,
2013-02-05 12:12:00,76.1,43.3,30.12,SSW,202,8.1,8.5,31,0.00,,---,0.00,VWS V14.01,2013-02-05 17:12:00,
2013-02-05 12:17:00,76.1,43.3,30.12,SSW,202,5.6,6.5,31,0.00,,---,0.00,VWS V14.01,2013-02-05 17:17:00,
2013-02-05 12:22:00,75.9,43.1,30.12,SSW,202,6.3,6.7,31,0.00,,---,0.00,VWS V14.01,2013-02-05 17:22:00,
2013-02-05 12:27:00,75.7,43.0,30.12,ESE,112,2.7,4.9,31,0.00,,---,0.00,VWS V14.01,2013-02-05 17:27:00,
2013-02-05 12:32:00,76.3,43.5,30.12,South,180,3.4,5.6,31,0.00,,---,0.00,VWS V14.01,2013-02-05 17:32:00,
2013-02-05 12:37:00,76.3,43.5,30.12,NNW,338,3.6,7.2,31,0.00,,---,0.00,VWS V14.01,2013-02-05 17:37:00,
2013-02-05 12:42:00,76.5,43.6,30.12,SSW,202,3.6,6.5,31,0.00,,---,0.00,VWS V14.01,2013-02-05 17:42:00,
2013-02-05 12:47:00,76.6,43.8,30.12,SSW,202,2.9,5.6,31,0.00,,---,0.00,VWS V14.01,2013-02-05 17:47:00,
2013-02-05 12:52:00,76.6,43.8,30.12,SSW,202,0.9,4.3,31,0.00,,---,0.00,VWS V14.01,2013-02-05 17:52:00,
2013-02-05 12:57:00,77.2,44.2,30.12,SW,225,3.8,4.9,31,0.00,,---,0.00,VWS V14.01,2013-02-05 17:57:00,
2013-02-05 13:03:00,77.5,44.5,30.12,SE,135,2.0,4.7,31,0.00,,---,0.00,VWS V14.01,2013-02-05 18:03:00,
2013-02-05 13:09:00,77.9,44.0,30.12,SSW,202,3.1,5.4,30,0.00,,---,0.00,VWS V14.01,2013-02-05 18:09:00,
2013-02-05 13:14:00,77.9,44.0,30.12,WNW,292,3.6,3.6,30,0.00,,---,0.00,VWS V14.01,2013-02-05 18:14:00,
2013-02-05 13:20:00,78.3,44.3,30.12,SSW,202,7.4,7.4,30,0.00,,---,0.00,VWS V14.01,2013-02-05 18:20:00,
2013-02-05 13:26:00,78.1,44.2,30.12,West,270,4.3,8.1,30,0.00,,---,0.00,VWS V14.01,2013-02-05 18:26:00,
2013-02-05 13:31:00,78.1,44.2,30.12,SW,225,4.9,5.4,30,0.00,,---,0.00,VWS V14.01,2013-02-05 18:31:00,
2013-02-05 13:36:00,78.3,44.3,30.12,SSE,158,3.8,4.3,30,0.00,,---,0.00,VWS V14.01,2013-02-05 18:36:00,
2013-02-05 13:41:00,78.1,44.2,30.12,South,180,4.3,6.0,30,0.00,,---,0.00,VWS V14.01,2013-02-05 18:41:00,
2013-02-05 13:46:00,78.4,44.5,30.09,WSW,248,5.6,5.6,30,0.00,,---,0.00,VWS V14.01,2013-02-05 18:46:00,
2013-02-05 13:52:00,78.6,44.6,30.09,SW,225,6.3,6.3,30,0.00,,---,0.00,VWS V14.01,2013-02-05 18:52:00,
2013-02-05 13:58:00,78.3,44.3,30.09,South,180,3.6,4.0,30,0.00,,---,0.00,VWS V14.01,2013-02-05 18:58:00,
2013-02-05 14:03:00,78.3,44.3,30.09,NW,315,3.1,5.6,30,0.00,,---,0.00,VWS V14.01,2013-02-05 19:03:00,
2013-02-05 14:08:00,78.1,43.3,30.09,SSW,202,3.6,3.6,29,0.00,,---,0.00,VWS V14.01,2013-02-05 19:08:00,
2013-02-05 14:13:00,78.3,44.3,30.09,SW,225,6.3,7.4,30,0.00,,---,0.00,VWS V14.01,2013-02-05 19:13:00,
2013-02-05 14:18:00,78.3,43.4,30.09,SSW,202,5.6,6.3,29,0.00,,---,0.00,VWS V14.01,2013-02-05 19:18:00,
2013-02-05 14:23:00,78.3,44.3,30.09,SSW,202,2.5,2.9,30,0.00,,---,0.00,VWS V14.01,2013-02-05 19:23:00,
2013-02-05 14:29:00,78.4,43.6,30.09,SSW,202,2.7,4.9,29,0.00,,---,0.00,VWS V14.01,2013-02-05 19:29:00,
2013-02-05 14:34:00,77.9,43.1,30.09,NNW,338,1.6,5.8,29,0.00,,---,0.00,VWS V14.01,2013-02-05 19:34:00,
2013-02-05 14:39:00,77.9,43.1,30.09,SSW,202,5.6,5.8,29,0.00,,---,0.00,VWS V14.01,2013-02-05 19:39:00,
2013-02-05 14:45:00,78.3,44.3,30.09,SSE,158,2.9,5.4,30,0.00,,---,0.00,VWS V14.01,2013-02-05 19:45:00,
2013-02-05 14:50:00,78.1,43.3,30.09,North,0,4.0,8.5,29,0.00,,---,0.00,VWS V14.01,2013-02-05 19:50:00,
2013-02-05 14:55:00,78.3,44.3,30.09,SSW,202,2.0,5.8,30,0.00,,---,0.00,VWS V14.01,2013-02-05 19:55:00,
2013-02-05 15:01:00,78.6,44.6,30.09,SSW,202,2.5,4.7,30,0.00,,---,0.00,VWS V14.01,2013-02-05 20:01:00,
2013-02-05 15:06:00,79.0,44.9,30.09,SSW,202,2.9,5.4,30,0.00,,---,0.00,VWS V14.01,2013-02-05 20:06:00,
2013-02-05 15:11:00,78.6,44.6,30.09,SSW,202,3.1,3.4,30,0.00,,---,0.00,VWS V14.01,2013-02-05 20:11:00,
2013-02-05 15:16:00,78.4,43.6,30.09,NW,315,3.6,5.6,29,0.00,,---,0.00,VWS V14.01,2013-02-05 20:16:00,
2013-02-05 15:21:00,78.4,43.6,30.09,SW,225,4.0,4.0,29,0.00,,---,0.00,VWS V14.01,2013-02-05 20:21:00,
2013-02-05 15:26:00,78.3,43.4,30.09,SW,225,3.4,6.0,29,0.00,,---,0.00,VWS V14.01,2013-02-05 20:26:00,
2013-02-05 15:31:00,78.1,43.3,30.09,SSW,202,4.9,7.2,29,0.00,,---,0.00,VWS V14.01,2013-02-05 20:31:00,
2013-02-05 15:36:00,77.5,42.8,30.09,SW,225,2.9,4.7,29,0.00,,---,0.00,VWS V14.01,2013-02-05 20:36:00,
2013-02-05 15:42:00,77.4,43.5,30.09,SSW,202,4.9,5.4,30,0.00,,---,0.00,VWS V14.01,2013-02-05 20:42:00,
2013-02-05 15:47:00,77.2,43.4,30.06,SE,135,2.7,4.9,30,0.00,,---,0.00,VWS V14.01,2013-02-05 20:47:00,
2013-02-05 15:52:00,76.8,43.1,30.06,SSW,202,4.9,4.9,30,0.00,,---,0.00,VWS V14.01,2013-02-05 20:52:00,
2013-02-05 15:57:00,76.6,42.9,30.06,SW,225,2.7,4.3,30,0.00,,---,0.00,VWS V14.01,2013-02-05 20:57:00,
2013-02-05 16:02:00,76.6,42.9,30.09,SW,225,4.3,4.3,30,0.00,,---,0.00,VWS V14.01,2013-02-05 21:02:00,
2013-02-05 16:07:00,76.1,42.5,30.09,SSW,202,4.3,5.8,30,0.00,,---,0.00,VWS V14.01,2013-02-05 21:07:00,
2013-02-05 16:13:00,75.9,43.1,30.09,SSW,202,3.6,5.6,31,0.00,,---,0.00,VWS V14.01,2013-02-05 21:13:00,
2013-02-05 16:19:00,75.7,43.0,30.09,SSW,202,2.0,2.0,31,0.00,,---,0.00,VWS V14.01,2013-02-05 21:19:00,
2013-02-05 16:25:00,75.6,42.8,30.09,SSW,202,3.1,3.4,31,0.00,,---,0.00,VWS V14.01,2013-02-05 21:25:00,
2013-02-05 16:30:00,75.0,42.4,30.09,SSW,202,4.3,5.8,31,0.00,,---,0.00,VWS V14.01,2013-02-05 21:30:00,
2013-02-05 16:35:00,74.7,42.0,30.09,SW,225,3.4,6.0,31,0.00,,---,0.00,VWS V14.01,2013-02-05 21:35:00,
2013-02-05 16:40:00,74.5,41.9,30.09,South,180,5.4,5.8,31,0.00,,---,0.00,VWS V14.01,2013-02-05 21:40:00,
2013-02-05 16:45:00,74.3,41.7,30.09,SSW,202,5.8,5.8,31,0.00,,---,0.00,VWS V14.01,2013-02-05 21:45:00,
2013-02-05 16:51:00,74.1,41.6,30.09,SW,225,5.4,5.4,31,0.00,,---,0.00,VWS V14.01,2013-02-05 21:51:00,
2013-02-05 16:57:00,73.9,42.2,30.09,SSW,202,3.1,4.9,32,0.00,,---,0.00,VWS V14.01,2013-02-05 21:57:00,
2013-02-05 17:03:00,73.8,42.1,30.09,SSE,158,1.3,4.0,32,0.00,,---,0.00,VWS V14.01,2013-02-05 22:03:00,
2013-02-05 17:08:00,73.6,41.9,30.09,West,270,2.0,5.6,32,0.00,,---,0.00,VWS V14.01,2013-02-05 22:08:00,
2013-02-05 17:14:00,73.4,42.6,30.09,NW,315,0.0,2.5,33,0.00,,---,0.00,VWS V14.01,2013-02-05 22:14:00,
2013-02-05 17:19:00,73.2,42.4,30.09,SSW,202,0.9,1.6,33,0.00,,---,0.00,VWS V14.01,2013-02-05 22:19:00,
2013-02-05 17:24:00,73.0,42.3,30.09,ENE,68,1.3,3.1,33,0.00,,---,0.00,VWS V14.01,2013-02-05 22:24:00,
2013-02-05 17:29:00,72.9,42.9,30.09,SSW,202,2.5,2.5,34,0.00,,---,0.00,VWS V14.01,2013-02-05 22:29:00,
2013-02-05 17:35:00,72.5,42.6,30.09,SW,225,2.5,3.6,34,0.00,,---,0.00,VWS V14.01,2013-02-05 22:35:00,
2013-02-05 17:40:00,72.1,43.0,30.09,South,180,2.9,3.8,35,0.00,,---,0.00,VWS V14.01,2013-02-05 22:40:00,
2013-02-05 17:45:00,72.0,42.8,30.09,SSW,202,2.9,3.4,35,0.00,,---,0.00,VWS V14.01,2013-02-05 22:45:00,
2013-02-05 17:50:00,71.6,43.3,30.09,SSW,202,2.7,3.6,36,0.00,,---,0.00,VWS V14.01,2013-02-05 22:50:00,
2013-02-05 17:55:00,71.4,43.1,30.09,SSW,202,2.2,2.7,36,0.00,,---,0.00,VWS V14.01,2013-02-05 22:55:00,
2013-02-05 18:01:00,71.1,43.5,30.09,SW,225,0.0,2.0,37,0.00,,---,0.00,VWS V14.01,2013-02-05 23:01:00,
2013-02-05 18:06:00,70.9,44.0,30.09,SSW,202,2.0,2.0,38,0.00,,---,0.00,VWS V14.01,2013-02-05 23:06:00,
2013-02-05 18:11:00,70.7,44.5,30.09,SW,225,1.1,1.1,39,0.00,,---,0.00,VWS V14.01,2013-02-05 23:11:00,
2013-02-05 18:16:00,70.5,45.1,30.09,SSE,158,0.0,0.0,40,0.00,,---,0.00,VWS V14.01,2013-02-05 23:16:00,
2013-02-05 18:21:00,70.2,45.4,30.09,West,270,0.0,0.0,41,0.00,,---,0.00,VWS V14.01,2013-02-05 23:21:00,
2013-02-05 18:26:00,69.8,45.7,30.09,WNW,292,2.2,2.2,42,0.00,,---,0.00,VWS V14.01,2013-02-05 23:26:00,
2013-02-05 18:31:00,69.4,46.0,30.09,WSW,248,0.0,0.9,43,0.00,,---,0.00,VWS V14.01,2013-02-05 23:31:00,
2013-02-05 18:36:00,69.3,45.8,30.09,WNW,292,0.0,0.9,43,0.00,,---,0.00,VWS V14.01,2013-02-05 23:36:00,
2013-02-05 18:43:00,68.9,46.7,30.09,NW,315,0.0,0.0,45,0.00,,---,0.00,VWS V14.01,2013-02-05 23:43:00,
2013-02-05 18:48:00,68.5,46.4,30.09,WNW,292,0.0,0.0,45,0.00,,---,0.00,VWS V14.01,2013-02-05 23:48:00,
2013-02-05 18:53:00,68.4,46.8,30.09,West,270,0.0,0.0,46,0.00,,---,0.00,VWS V14.01,2013-02-05 23:53:00,
2013-02-05 18:58:00,68.2,46.6,30.09,WSW,248,0.0,0.0,46,0.00,,---,0.00,VWS V14.01,2013-02-05 23:58:00,
2013-02-05 19:03:00,67.8,46.9,30.09,South,180,0.0,0.0,47,0.00,,---,0.00,VWS V14.01,2013-02-06 00:03:00,
2013-02-05 19:09:00,67.6,46.7,30.09,South,180,0.0,0.0,47,0.00,,---,0.00,VWS V14.01,2013-02-06 00:09:00,
2013-02-05 19:14:00,67.5,47.1,30.09,South,180,0.0,0.0,48,0.00,,---,0.00,VWS V14.01,2013-02-06 00:14:00,
2013-02-05 19:21:00,67.1,46.8,30.09,South,180,0.0,0.0,48,0.00,,---,0.00,VWS V14.01,2013-02-06 00:21:00,
2013-02-05 19:26:00,66.9,47.2,30.09,South,180,0.0,0.0,49,0.00,,---,0.00,VWS V14.01,2013-02-06 00:26:00,
2013-02-05 19:32:00,66.6,46.8,30.09,South,180,0.0,0.0,49,0.00,,---,0.00,VWS V14.01,2013-02-06 00:32:00,
2013-02-05 19:37:00,66.4,47.2,30.09,South,180,0.0,0.0,50,0.00,,---,0.00,VWS V14.01,2013-02-06 00:37:00,
2013-02-05 19:42:00,66.2,47.0,30.09,South,180,0.0,0.0,50,0.00,,---,0.00,VWS V14.01,2013-02-06 00:42:00,
2013-02-05 19:47:00,66.0,47.4,30.09,SSE,158,0.0,0.0,51,0.00,,---,0.00,VWS V14.01,2013-02-06 00:47:00,
2013-02-05 19:52:00,65.7,47.6,30.09,SSE,158,0.0,0.0,52,0.00,,---,0.00,VWS V14.01,2013-02-06 00:52:00,
2013-02-05 19:58:00,65.5,47.4,30.09,SSE,158,0.0,0.0,52,0.00,,---,0.00,VWS V14.01,2013-02-06 00:58:00,
2013-02-05 20:03:00,65.3,47.2,30.09,SE,135,0.0,0.0,52,0.00,,---,0.00,VWS V14.01,2013-02-06 01:03:00,
2013-02-05 20:09:00,65.1,47.6,30.09,SE,135,0.0,0.0,53,0.00,,---,0.00,VWS V14.01,2013-02-06 01:09:00,
2013-02-05 20:15:00,64.9,47.4,30.09,SE,135,0.0,0.0,53,0.00,,---,0.00,VWS V14.01,2013-02-06 01:15:00,
2013-02-05 20:20:00,64.8,47.2,30.09,SE,135,0.0,0.0,53,0.00,,---,0.00,VWS V14.01,2013-02-06 01:20:00,
2013-02-05 20:26:00,64.6,47.6,30.09,SE,135,0.0,0.0,54,0.00,,---,0.00,VWS V14.01,2013-02-06 01:26:00,
2013-02-05 20:31:00,64.4,47.9,30.09,SE,135,0.0,0.0,55,0.00,,---,0.00,VWS V14.01,2013-02-06 01:31:00,
2013-02-05 20:36:00,64.2,48.2,30.09,SE,135,0.0,0.0,56,0.00,,---,0.00,VWS V14.01,2013-02-06 01:36:00,
2013-02-05 20:41:00,64.0,48.0,30.09,SE,135,0.0,0.0,56,0.00,,---,0.00,VWS V14.01,2013-02-06 01:41:00,
2013-02-05 20:47:00,63.9,47.9,30.12,SE,135,0.0,0.0,56,0.00,,---,0.00,VWS V14.01,2013-02-06 01:47:00,
2013-02-05 20:52:00,63.7,47.7,30.12,SE,135,0.0,0.0,56,0.00,,---,0.00,VWS V14.01,2013-02-06 01:52:00,
2013-02-05 20:58:00,63.5,48.0,30.12,East,90,0.0,0.0,57,0.00,,---,0.00,VWS V14.01,2013-02-06 01:58:00,
2013-02-05 21:03:00,63.3,47.8,30.12,East,90,0.0,0.0,57,0.00,,---,0.00,VWS V14.01,2013-02-06 02:03:00,
2013-02-05 21:09:00,63.1,47.7,30.12,East,90,0.0,0.0,57,0.00,,---,0.00,VWS V14.01,2013-02-06 02:09:00,
2013-02-05 21:15:00,63.0,47.5,30.12,East,90,0.0,0.0,57,0.00,,---,0.00,VWS V14.01,2013-02-06 02:15:00,
2013-02-05 21:20:00,63.0,48.0,30.12,East,90,0.0,0.0,58,0.00,,---,0.00,VWS V14.01,2013-02-06 02:20:00,
2013-02-05 21:26:00,62.8,47.8,30.12,East,90,0.0,0.0,58,0.00,,---,0.00,VWS V14.01,2013-02-06 02:26:00,
2013-02-05 21:31:00,62.6,47.6,30.12,East,90,0.0,0.0,58,0.00,,---,0.00,VWS V14.01,2013-02-06 02:31:00,
2013-02-05 21:37:00,62.6,47.6,30.12,East,90,0.0,0.0,58,0.00,,---,0.00,VWS V14.01,2013-02-06 02:37:00,
2013-02-05 21:43:00,62.4,47.9,30.12,East,90,0.0,0.0,59,0.00,,---,0.00,VWS V14.01,2013-02-06 02:43:00,
2013-02-05 21:48:00,62.2,47.8,30.12,East,90,0.0,0.0,59,0.00,,---,0.00,VWS V14.01,2013-02-06 02:48:00,
2013-02-05 21:53:00,62.2,47.8,30.12,East,90,0.0,0.0,59,0.00,,---,0.00,VWS V14.01,2013-02-06 02:53:00,
2013-02-05 21:58:00,62.1,48.0,30.12,East,90,0.0,0.0,60,0.00,,---,0.00,VWS V14.01,2013-02-06 02:58:00,
2013-02-05 22:05:00,61.9,48.3,30.12,East,90,0.0,0.0,61,0.00,,---,0.00,VWS V14.01,2013-02-06 03:05:00,
2013-02-05 22:11:00,61.9,48.3,30.12,East,90,0.0,0.0,61,0.00,,---,0.00,VWS V14.01,2013-02-06 03:11:00,
2013-02-05 22:16:00,61.7,48.6,30.12,East,90,0.0,0.0,62,0.00,,---,0.00,VWS V14.01,2013-02-06 03:16:00,
2013-02-05 22:22:00,61.7,48.6,30.12,East,90,0.0,0.0,62,0.00,,---,0.00,VWS V14.01,2013-02-06 03:22:00,
2013-02-05 22:27:00,61.7,48.6,30.12,East,90,0.0,0.0,62,0.00,,---,0.00,VWS V14.01,2013-02-06 03:27:00,
2013-02-05 22:33:00,61.5,48.4,30.12,East,90,0.0,0.0,62,0.00,,---,0.00,VWS V14.01,2013-02-06 03:33:00,
2013-02-05 22:38:00,61.5,48.4,30.12,East,90,0.0,0.0,62,0.00,,---,0.00,VWS V14.01,2013-02-06 03:38:00,
2013-02-05 22:43:00,61.3,48.7,30.12,East,90,0.0,0.0,63,0.00,,---,0.00,VWS V14.01,2013-02-06 03:43:00,
2013-02-05 22:48:00,61.2,48.5,30.12,East,90,0.0,0.0,63,0.00,,---,0.00,VWS V14.01,2013-02-06 03:48:00,
2013-02-05 22:53:00,61.2,48.5,30.12,East,90,0.0,0.0,63,0.00,,---,0.00,VWS V14.01,2013-02-06 03:53:00,
2013-02-05 22:58:00,61.2,48.5,30.12,East,90,0.0,0.0,63,0.00,,---,0.00,VWS V14.01,2013-02-06 03:58:00,
2013-02-05 23:03:00,61.0,48.3,30.12,East,90,0.0,0.0,63,0.00,,---,0.00,VWS V14.01,2013-02-06 04:03:00,
2013-02-05 23:08:00,61.0,48.3,30.12,East,90,0.0,0.0,63,0.00,,---,0.00,VWS V14.01,2013-02-06 04:08:00,
2013-02-05 23:14:00,60.6,48.4,30.12,SE,135,0.0,0.0,64,0.00,,---,0.00,VWS V14.01,2013-02-06 04:14:00,
2013-02-05 23:19:00,60.6,48.4,30.12,SE,135,0.0,0.0,64,0.00,,---,0.00,VWS V14.01,2013-02-06 04:19:00,
2013-02-05 23:24:00,60.6,48.4,30.12,SE,135,0.0,0.0,64,0.00,,---,0.00,VWS V14.01,2013-02-06 04:24:00,
2013-02-05 23:29:00,60.4,48.2,30.12,ENE,68,0.0,0.0,64,0.00,,---,0.00,VWS V14.01,2013-02-06 04:29:00,
2013-02-05 23:35:00,60.4,48.2,30.12,NE,45,0.0,0.0,64,0.00,,---,0.00,VWS V14.01,2013-02-06 04:35:00,
2013-02-05 23:40:00,60.4,48.6,30.12,NE,45,0.0,0.0,65,0.00,,---,0.00,VWS V14.01,2013-02-06 04:40:00,
2013-02-05 23:46:00,60.3,48.5,30.12,NE,45,0.0,0.0,65,0.00,,---,0.00,VWS V14.01,2013-02-06 04:46:00,
2013-02-05 23:51:00,60.3,48.5,30.12,NE,45,0.0,0.0,65,0.00,,---,0.00,VWS V14.01,2013-02-06 04:51:00,
2013-02-05 23:56:00,60.1,48.3,30.12,NE,45,0.0,0.0,65,0.00,,---,0.00,VWS V14.01,2013-02-06 04:56:00,